Flag for Russia Weather past 2 weeks in Pyatigorsk, Russia

Now
52 °F

Sprinkles. Mostly cloudy.


Feels Like: 51 °F
Forecast: 40 / 55 °F
Wind: 3 mph from Southwest

Location: Mineral'Nye Vody

Current Time: Oct 2, 2014 at 1:27:22 AM

Latest Report: Oct 2, 2014 at 12:30 AM


Visibility: N/A

Pressure: 30.18 "Hg

Humidity: 94%

Dew point: 50 °F

Location of PyatigorskLocation

Historic Weather in Pyatigorsk — Graph

°F

Pyatigorsk temperature yesterday

Maximum temperature yesterday: 68 °F (at 1:30 PM)
Minimum temperature yesterday: 46 °F (at 6:00 AM)
Average temperature yesterday: 57 °F

Past Weeks' High & Low Weather Summary

 TemperatureHumidityPressure
High77 °F (Sep 17, 3:00 PM)100% (Sep 17, 6:00 AM)30.27 "Hg (Sep 17, 6:00 AM)
Low37 °F (Sep 30, 6:30 AM)26% (Sep 17, 3:30 PM)29.50 "Hg (Sep 24, 3:30 AM)
Average55 °F81%30.00 "Hg
* Reported Midnight between Sep 16 and Sep 17 — Oct 2 12:30 AM, Pyatigorsk, Weather by CustomWeather, © 2014

Note: Actual official high and low records may vary slightly from our data, if they occured in-between our weather recording intervals... More about our weather records

Advertising

Pyatigorsk weather history for previous 24 hours

 ConditionsComfort  
Time TempWeatherWind HumidityBarometerVisibility
12:30 AM
Oct 2
52 °FSprinkles. Mostly cloudy.3 mph94%30.18 "HgN/A
12:00 AM52 °FSprinkles. Mostly cloudy.No wind94%30.18 "Hg4 mi
11:30 PM
Oct 1
52 °FSprinkles. Mostly cloudy.3 mph94%30.18 "HgN/A
11:00 PM54 °FSprinkles. Mostly cloudy.6 mph82%30.18 "HgN/A
10:30 PM54 °FSprinkles. Mostly cloudy.3 mph82%30.18 "HgN/A
10:00 PM54 °FSprinkles. Mostly cloudy.6 mph82%30.15 "HgN/A
9:30 PM55 °FSprinkles. Passing clouds.13 mph77%30.15 "HgN/A
9:00 PM61 °FPassing clouds.17 mph63%30.12 "HgN/A
8:30 PM61 °FPartly cloudy.22 mph63%30.09 "HgN/A
8:00 PM61 °FPassing clouds.22 mph63%30.09 "HgN/A
7:30 PM61 °FBroken clouds.20 mph63%30.09 "HgN/A
7:00 PM63 °FPartly sunny.17 mph59%30.09 "HgN/A
6:30 PM64 °FPartly sunny.20 mph52%30.07 "HgN/A
6:00 PM66 °FPartly sunny.13 mph43%30.04 "HgN/A
5:30 PM66 °FPartly sunny.13 mph43%30.04 "HgN/A
5:00 PM66 °FPartly sunny.15 mph40%30.04 "HgN/A
4:30 PM66 °FPartly sunny.15 mph49%30.04 "HgN/A
4:00 PM66 °FPartly sunny.15 mph56%30.04 "HgN/A
3:30 PM66 °FPartly sunny.15 mph56%30.04 "HgN/A
3:00 PM68 °FPartly sunny.8 mph53%30.04 "HgN/A
2:30 PM68 °FPartly sunny.10 mph53%30.04 "HgN/A
2:00 PM66 °FPartly sunny.10 mph56%30.04 "HgN/A
1:30 PM68 °FPartly sunny.8 mph53%30.04 "HgN/A
1:00 PM66 °FPartly sunny.10 mph56%30.07 "HgN/A
12:30 PM66 °FPartly sunny.13 mph52%30.07 "HgN/A
12:00 PM66 °FPartly sunny.10 mph56%30.07 "HgN/A
11:30 AM63 °FPartly sunny.8 mph64%30.07 "HgN/A
11:00 AM61 °FPartly sunny.10 mph63%30.09 "HgN/A
10:30 AM61 °FPartly sunny.8 mph68%30.09 "HgN/A
10:00 AM57 °FPartly sunny.8 mph77%30.09 "HgN/A
9:30 AM55 °FPartly sunny.6 mph82%30.09 "HgN/A
9:00 AM52 °FPartly sunny.6 mph88%30.09 "HgN/A
8:30 AM50 °FPartly sunny.6 mph94%30.09 "HgN/A
8:00 AM50 °FPassing clouds.3 mph88%30.09 "HgN/A
7:30 AM48 °FPassing clouds.1 mph87%30.12 "HgN/A
7:00 AM48 °FPassing clouds.3 mph87%30.12 "HgN/A
6:30 AM48 °FPassing clouds.3 mph87%30.12 "HgN/A
6:00 AM46 °FPassing clouds.3 mph87%30.12 "HgN/A
5:30 AM48 °FPassing clouds.3 mph87%30.12 "HgN/A
5:00 AM48 °FPassing clouds.3 mph87%30.12 "HgN/A
4:30 AM48 °FPassing clouds.6 mph87%30.12 "HgN/A
4:00 AM48 °FPassing clouds.6 mph87%30.12 "HgN/A
3:30 AM48 °FPassing clouds.6 mph87%30.12 "HgN/A
3:00 AM48 °FPassing clouds.6 mph87%30.15 "HgN/A
2:30 AM50 °FPassing clouds.6 mph82%30.15 "HgN/A
2:00 AM48 °FPassing clouds.3 mph87%30.15 "HgN/A
1:30 AM50 °FPassing clouds.6 mph82%30.15 "HgN/A
Weather by CustomWeather, © 2014

See weather overviewHow to use our weather pages